• în Republica Moldova
  • Lista ţărilor
  • Pe 7 zile
  • Temperatura apei
  • Hartă satelitară
  • Meteo pe hartă
  • Widget-uri
  • user-avatar
    Intrare

    Meteo pe oră la Klagenfurt

    Astăzi, 29 Mai, Luni

    Timp Temperatura Precipitaţii Vânt Presiune Umiditate
    00:00 +10°C° 0 mm 1 m/s 692 mmHg 95%
    01:00 +9°C° 0 mm 0 m/s 692 mmHg 96%
    02:00 +10°C° 0 mm 0 m/s 692 mmHg 96%
    03:00 +10°C° 0 mm 0 m/s 692 mmHg 95%
    04:00 +10°C° 0 mm 0 m/s 691 mmHg 95%
    05:00 +12°C° 0 mm 0 m/s 692 mmHg 89%
    06:00 +14°C° 0 mm 0 m/s 692 mmHg 83%
    07:00 +16°C° 0 mm 0 m/s 692 mmHg 72%
    08:00 +18°C° 0 mm 0 m/s 693 mmHg 65%
    09:00 +21°C° 0 mm 0 m/s 693 mmHg 57%
    10:00 +25°C° 0 mm 1 m/s 693 mmHg 50%
    11:00 +26°C° 0 mm 1 m/s 693 mmHg 46%
    12:00 +27°C° 0 mm 1 m/s 693 mmHg 42%
    13:00 +28°C° 0 mm 1 m/s 693 mmHg 38%
    14:00 +27°C° 0 mm 1 m/s 693 mmHg 40%
    15:00 +26°C° 0 mm 2 m/s 692 mmHg 43%
    16:00 +26°C° 0 mm 2 m/s 692 mmHg 46%
    17:00 +24°C° 0,1 mm 1 m/s 691 mmHg 58%
    18:00 +22°C° 0,1 mm 1 m/s 691 mmHg 69%
    19:00 +20°C° 0,1 mm 1 m/s 690 mmHg 81%
    20:00 +18°C° 0 mm 1 m/s 690 mmHg 85%
    21:00 +15°C° 0 mm 1 m/s 690 mmHg 90%
    22:00 +13°C° 0 mm 1 m/s 689 mmHg 94%
    23:00 +13°C° 0 mm 1 m/s 689 mmHg 94%

    Mâine, 30 Mai, Marţi

    Timp Temperatura Precipitaţii Vânt Presiune Umiditate
    00:00 +12°C° 0 mm 1 m/s 689 mmHg 94%
    01:00 +12°C° 0 mm 1 m/s 689 mmHg 95%
    02:00 +12°C° 0 mm 1 m/s 689 mmHg 95%
    03:00 +12°C° 0 mm 1 m/s 689 mmHg 95%
    04:00 +11°C° 0 mm 1 m/s 689 mmHg 95%
    05:00 +14°C° 0 mm 1 m/s 689 mmHg 88%
    06:00 +15°C° 0 mm 0 m/s 690 mmHg 81%
    07:00 +18°C° 0 mm 0 m/s 691 mmHg 74%
    08:00 +20°C° 0 mm 0 m/s 691 mmHg 66%
    09:00 +24°C° 0 mm 1 m/s 692 mmHg 58%
    10:00 +26°C° 0 mm 1 m/s 692 mmHg 50%
    11:00 +26°C° 0,1 mm 1 m/s 692 mmHg 49%
    12:00 +27°C° 0,1 mm 1 m/s 692 mmHg 48%
    13:00 +27°C° 0,1 mm 2 m/s 692 mmHg 47%
    14:00 +27°C° 0,4 mm 2 m/s 692 mmHg 51%
    15:00 +26°C° 0,4 mm 2 m/s 691 mmHg 55%
    16:00 +26°C° 0,4 mm 2 m/s 691 mmHg 58%
    17:00 +24°C° 0,2 mm 2 m/s 691 mmHg 66%
    18:00 +22°C° 0,2 mm 1 m/s 691 mmHg 74%
    19:00 +20°C° 0,2 mm 1 m/s 691 mmHg 82%
    20:00 +19°C° 0,3 mm 1 m/s 691 mmHg 86%
    21:00 +16°C° 0,3 mm 1 m/s 691 mmHg 89%
    22:00 +15°C° 0,3 mm 1 m/s 691 mmHg 93%
    23:00 +15°C° 0,3 mm 1 m/s 691 mmHg 94%

    Poimâine, 31 Mai, Miercuri

    Timp Temperatura Precipitaţii Vânt Presiune Umiditate
    00:00 +14°C° 0,3 mm 1 m/s 691 mmHg 94%
    01:00 +14°C° 0,3 mm 1 m/s 691 mmHg 95%
    02:00 +14°C° 0,1 mm 1 m/s 691 mmHg 95%
    03:00 +14°C° 0,1 mm 1 m/s 691 mmHg 95%
    04:00 +14°C° 0,1 mm 1 m/s 691 mmHg 95%
    05:00 +15°C° 0,1 mm 1 m/s 692 mmHg 91%
    06:00 +18°C° 0,1 mm 1 m/s 692 mmHg 86%
    07:00 +19°C° 0,1 mm 1 m/s 693 mmHg 81%
    08:00 +21°C° 0,5 mm 1 m/s 693 mmHg 76%
    09:00 +22°C° 0,5 mm 1 m/s 693 mmHg 71%
    10:00 +24°C° 0,5 mm 1 m/s 694 mmHg 66%
    11:00 +24°C° 0,9 mm 1 m/s 694 mmHg 67%
    12:00 +24°C° 0,9 mm 1 m/s 694 mmHg 67%
    13:00 +24°C° 0,9 mm 1 m/s 694 mmHg 68%
    14:00 +24°C° 1,1 mm 1 m/s 693 mmHg 69%
    15:00 +24°C° 1,1 mm 1 m/s 693 mmHg 70%
    16:00 +24°C° 1,1 mm 2 m/s 693 mmHg 71%
    17:00 +23°C° 0,8 mm 1 m/s 693 mmHg 77%
    18:00 +21°C° 0,8 mm 1 m/s 692 mmHg 83%
    19:00 +20°C° 0,8 mm 1 m/s 692 mmHg 89%
    20:00 +18°C° 0,8 mm 1 m/s 692 mmHg 91%
    21:00 +16°C° 0,8 mm 1 m/s 692 mmHg 94%
    22:00 +14°C° 0,8 mm 1 m/s 692 mmHg 96%
    23:00 +14°C° 0,8 mm 1 m/s 692 mmHg 96%

    1 Iunie, Joi

    Timp Temperatura Precipitaţii Vânt Presiune Umiditate
    00:00 +14°C° 0,8 mm 1 m/s 692 mmHg 97%
    01:00 +14°C° 0,8 mm 1 m/s 692 mmHg 97%
    02:00 +14°C° 0,3 mm 1 m/s 692 mmHg 97%
    03:00 +13°C° 0,3 mm 1 m/s 692 mmHg 97%
    04:00 +13°C° 0,3 mm 1 m/s 691 mmHg 97%
    05:00 +13°C° 0,1 mm 0 m/s 692 mmHg 93%
    06:00 +15°C° 0,1 mm 0 m/s 693 mmHg 89%
    07:00 +17°C° 0,1 mm 0 m/s 693 mmHg 85%
    08:00 +19°C° 0,5 mm 0 m/s 693 mmHg 80%
    09:00 +22°C° 0,5 mm 1 m/s 694 mmHg 74%
    10:00 +23°C° 0,5 mm 1 m/s 694 mmHg 69%
    11:00 +24°C° 0,8 mm 1 m/s 694 mmHg 67%
    12:00 +24°C° 0,8 mm 1 m/s 694 mmHg 65%
    13:00 +25°C° 0,8 mm 2 m/s 694 mmHg 63%
    14:00 +24°C° 0,7 mm 1 m/s 694 mmHg 64%
    15:00 +24°C° 0,7 mm 1 m/s 694 mmHg 64%
    16:00 +24°C° 0,7 mm 1 m/s 694 mmHg 65%
    17:00 +23°C° 0,5 mm 1 m/s 693 mmHg 72%
    18:00 +21°C° 0,5 mm 1 m/s 693 mmHg 79%
    19:00 +19°C° 0,5 mm 1 m/s 693 mmHg 86%
    20:00 +16°C° 0,3 mm 1 m/s 693 mmHg 89%
    21:00 +13°C° 0,3 mm 0 m/s 692 mmHg 92%
    22:00 +11°C° 0,3 mm 0 m/s 692 mmHg 95%
    23:00 +11°C° 0,1 mm 0 m/s 692 mmHg 96%

    2 Iunie, Vineri

    Timp Temperatura Precipitaţii Vânt Presiune Umiditate
    00:00 +11°C° 0,1 mm 0 m/s 692 mmHg 96%
    01:00 +11°C° 0,1 mm 0 m/s 692 mmHg 96%
    02:00 +11°C° 0 mm 0 m/s 692 mmHg 97%
    03:00 +11°C° 0 mm 0 m/s 692 mmHg 97%
    04:00 +11°C° 0 mm 0 m/s 692 mmHg 97%
    05:00 +13°C° 0 mm 0 m/s 692 mmHg 93%
    06:00 +15°C° 0 mm 0 m/s 693 mmHg 89%
    07:00 +16°C° 0 mm 0 m/s 693 mmHg 84%
    08:00 +20°C° 0 mm 1 m/s 693 mmHg 76%
    09:00 +21°C° 0 mm 1 m/s 694 mmHg 68%
    10:00 +23°C° 0 mm 1 m/s 694 mmHg 60%
    11:00 +24°C° 0,1 mm 1 m/s 694 mmHg 57%
    12:00 +24°C° 0,1 mm 1 m/s 693 mmHg 54%
    13:00 +25°C° 0,1 mm 2 m/s 693 mmHg 51%
    14:00 +25°C° 0,2 mm 2 m/s 693 mmHg 53%
    15:00 +24°C° 0,2 mm 2 m/s 692 mmHg 55%
    16:00 +24°C° 0,2 mm 2 m/s 692 mmHg 57%
    17:00 +23°C° 0,2 mm 1 m/s 692 mmHg 66%
    18:00 +21°C° 0,2 mm 1 m/s 691 mmHg 75%
    19:00 +19°C° 0,2 mm 1 m/s 691 mmHg 85%
    20:00 +16°C° 0,2 mm 1 m/s 691 mmHg 88%
    21:00 +13°C° 0,2 mm 0 m/s 690 mmHg 92%
    22:00 +11°C° 0,2 mm 0 m/s 690 mmHg 95%
    23:00 +10°C° 0,1 mm 0 m/s 690 mmHg 96%

    3 Iunie, Sâmbătă

    Timp Temperatura Precipitaţii Vânt Presiune Umiditate
    00:00 +10°C° 0,1 mm 0 m/s 690 mmHg 96%
    01:00 +9°C° 0,1 mm 0 m/s 689 mmHg 96%
    02:00 +9°C° 0 mm 0 m/s 689 mmHg 96%
    03:00 +9°C° 0 mm 0 m/s 689 mmHg 96%
    04:00 +9°C° 0 mm 0 m/s 689 mmHg 96%
    05:00 +12°C° 0 mm 0 m/s 690 mmHg 90%
    06:00 +15°C° 0 mm 0 m/s 690 mmHg 83%
    07:00 +18°C° 0 mm 0 m/s 691 mmHg 77%
    08:00 +19°C° 0 mm 0 m/s 691 mmHg 69%
    09:00 +21°C° 0 mm 0 m/s 692 mmHg 61%
    10:00 +25°C° 0 mm 1 m/s 692 mmHg 52%
    11:00 +26°C° 0,1 mm 1 m/s 692 mmHg 51%
    12:00 +26°C° 0,1 mm 1 m/s 692 mmHg 49%
    13:00 +26°C° 0,1 mm 1 m/s 691 mmHg 47%
    14:00 +26°C° 0,2 mm 2 m/s 691 mmHg 49%
    15:00 +26°C° 0,2 mm 2 m/s 691 mmHg 52%
    16:00 +25°C° 0,2 mm 2 m/s 691 mmHg 55%
    17:00 +23°C° 0,1 mm 1 m/s 690 mmHg 64%
    18:00 +22°C° 0,1 mm 1 m/s 690 mmHg 74%
    19:00 +20°C° 0,1 mm 1 m/s 690 mmHg 84%
    20:00 +18°C° 0 mm 1 m/s 689 mmHg 87%
    21:00 +13°C° 0 mm 0 m/s 689 mmHg 90%
    22:00 +11°C° 0 mm 0 m/s 689 mmHg 94%
    23:00 +11°C° 0 mm 0 m/s 689 mmHg 94%
    Arată mai mult